Starlink 31283

operational
NORAD ID: 59174 Int'l Des: 2024-044 Owner: SPXS Country: US Constellation: starlink
LEOCIRCULAR

Starlink 31283について

説明を読み込み中...

リアルタイム位置

3D地球を読み込み中...

次回通過

高度履歴

Altitude vs Time

uPlot chart will show altitude changes over time

軌道要素

1 59174U 24044Y 26063.16670139 .00007073 00000-0 26635-3 0 9992
2 59174 42.9998 91.3027 0001269 267.3913 81.6555 15.27572773 5786
Epoch: Mar 4, 2026 • Age: 20 hours

現在のステータス

高度 485.5 km
速度 7.63 km/s
衛星直下点 36.28°N, 109.36°E
打ち上げ日 Mar 4, 2024
運用期間 1.9 years
タイプ internet

技術仕様

分類 Payload
質量 730.00 kg
乾燥質量 700.00 kg
総質量 730.00 kg
長さ 0.30 m
直径 4.10 m
スパン 29.00 m
形状 Box + pan
製造者 SPXS
バスタイプ Starlink V2M
フェーズステータス In Orbit
所有者/国 SPXS/US

大規模コンステレーション

Loading constellations...